Regional Weather Roundup
Issued by NWS New Orleans/Baton Rouge, LA

Home | Current Version | Previous Version | Graphics & Text | Print | Product List | Glossary On
Versions: 1 2 3 4 5 6 7 8 9 10 11 12 13 14 15 16 17 18 19 20 21 22 23 24 25 26 27 28 29 30 31 32 33 34 35 36 37 38 39 40 41 42 43 44 45 46 47 48 49 50
388
ASUS44 KLIX 191805
RWRLIX
NEW ORLEANS REGIONAL WEATHER ROUNDUP
NATIONAL WEATHER SERVICE NEW ORLEANS LA
1200 PM CST FRI DEC 19 2014

NOTE: "FAIR" INDICATES FEW OR NO CLOUDS BELOW 12,000 FEET WITH NO
      SIGNIFICANT WEATHER AND/OR OBSTRUCTIONS TO VISIBILITY.
      SKY/WX - SKY CONDITION AND SIGNIFICANT WEATHER.
      TMP - AIR TEMPERATURE.     DP    - DEWPOINT TEMPERATURE.
      RH  - RELATIVE HUMIDITY.   PRES  - PRESSURE.
      HI  - HEAT INDEX.          WCI   - WIND CHILL INDEX.

*  THESE STATIONS ARE NOT NWS OR FAA STATIONS AND ARE NOT UNDER
   NWS QUALITY CONTROL.

LAZ038-040-048-061>063-065>067-069-191900-
SOUTHEAST LOUISIANA

CITY           SKY/WX    TMP DP  RH WIND       PRES   REMARKS
N.O. AUDUBON   NOT AVBL
N.O. INTL ARPT LGT RAIN  55  52  89 E12       30.09F FOG
6HR MIN TEMP:  54; 6HR MAX TEMP:  57; 6HR PCP:  0.08;

N.O. LAKEFRONT HVY RAIN  55  51  86 E13       30.10F FOG
6HR MIN TEMP:  55; 6HR MAX TEMP:  58; 6HR PCP:  0.14;

N.O. DOWNTOWN* MOCLDY    54  46  76 E8        30.10F
6HR MIN TEMP:  54; 6HR MAX TEMP:  57; 6HR PCP:  0.12;

SLIDELL        HVY RAIN  50  49  96 N3        30.10F FOG
6HR MIN TEMP:  50; 6HR MAX TEMP:  54; 6HR PCP:  0.43;

BATON ROUGE    LGT RAIN  55  53  93 E9        30.08F
6HR MIN TEMP:  53; 6HR MAX TEMP:  56; 6HR PCP:  0.52;

BOOTHVILLE     LGT RAIN  58  56  93 E14       30.08F
6HR MIN TEMP:  57; 6HR MAX TEMP:  61; 6HR PCP:  0.10;

BELLE CHASSE   RAIN      54  52  93 NE8       30.09F FOG
6HR MIN TEMP:  54; 6HR MAX TEMP:  59; 6HR PCP:  0.07;

BOGALUSA*      LGT RAIN  51  45  80 E5        30.11F
6HR MIN TEMP:  49; 6HR MAX TEMP:  53; 6HR PCP:  0.72;

GALLIANO*      DRIZZLE   59  57  92 MISG      30.08F
6HR MIN TEMP:  59; 6HR MAX TEMP:  61;

NEW ROADS*     RAIN      55  54  97 N6        30.11R
6HR MIN TEMP:  53; 6HR MAX TEMP:  55; 6HR PCP:  0.19;

GONZALES*      CLOUDY    57  57 100 E8        30.07F
6HR MIN TEMP:  54; 6HR MAX TEMP:  58; 6HR PCP:  0.14;

HAMMOND*       NOT AVBL
HOUMA*         CLOUDY    55  55 100 NE12      30.08F FOG
PORT FOURCHON* CLOUDY    59  57  94 E14G25    30.10F

$$

MSZ070-080>082-191900-
SOUTHERN MISSISSIPPI

CITY           SKY/WX    TMP DP  RH WIND       PRES   REMARKS
MCCOMB         LGT RAIN  47  44  90 NE8       30.11F
6HR MIN TEMP:  46; 6HR MAX TEMP:  50; 6HR PCP:  0.53;

GULFPORT       CLOUDY    52  49  89 NE9       30.10F
6HR MIN TEMP:  47; 6HR MAX TEMP:  52; 6HR PCP:  1.27;

BILOXI         MOSUNNY   52  51  97 NE10      30.09F
6HR MIN TEMP:  47; 6HR MAX TEMP:  52; 6HR PCP:  0.77;

PASCAGOULA     CLOUDY    51  48  89 NE9       30.11F
6HR MIN TEMP:  47; 6HR MAX TEMP:  53; 6HR PCP:  0.61;

STENNIS ARPT*  CLOUDY    48  45  87 NE6       30.10F

$$

COASTAL OBSERVATIONS
LAKE AND NEARSHORE STATIONS

STATION/POSITION TIME  TEMP    WIND        PRES    WAVE
                       AIR SEA DIR/SP/G            HT/PER
                 (UTC) (F)     (DEG/KT/KT) (MB)    (FT/S)
PASCAGOULA       1800   52      60/ 11/ 14 1019.1
WAVELAND YACHT   1800   49      40/ 10/ 11 1018.5
GRAND ISLE       1800   58 62   80/ 11/ 19 1018.7
SOUTHWEST PASS   1800   60                 1018.7
NEW CANAL        1800   54 57  150/  2/  4 1019.7
SHELL BEACH      1800   54 60   70/ 20/ 22 1018.1

OFFSHORE STATIONS

STATION/POSITION TIME  TEMP    WIND        PRES    WAVE
                       AIR SEA DIR/SP/G            HT/PER
                 (UTC) (F)     (DEG/KT/KT) (MB)    (FT/S)
64 S DAUPHIN ISL 1800   66 75   70/ 21/ 25 1018.2    5/ 5

$$




USA.gov is the U.S. government's official web portal to all federal, state and local government web resources and services.